Hourly Data Report for August 26, 2003

TORONTO CITY
ONTARIO

43°40'00.000" N
79°24'00.000" W
112.50 m
6158355
71508
XTO

Download Data

Hourly Data (August 2003)
Hourly Data Report for August 26, 2003
TIME
LST
Temp Definition
°C
Dew Point Definition
°C
Rel Hum Definition
%
Precip. Amount Definition
mm

Wind Dir Definition
10's deg

Wind Spd Definition
km/h
Visibility Definition
km
Stn Press Definition
kPa
Hmdx Definition


Wind Chill Definition


Weather Definition


00:00 21.3 15.9 71   LegendMM LegendMM LegendMM 100.04 26   LegendNANA
01:00 21.3 16.4 74   LegendMM LegendMM LegendMM 99.98 26   LegendNANA
02:00 22.3 16.5 70   LegendMM LegendMM LegendMM 99.93 27   LegendNANA
03:00 20.8 17.5 81   LegendMM LegendMM LegendMM 100.01 26   LegendNANA
04:00 19.5 18.5 94   LegendMM LegendMM LegendMM 99.86     LegendNANA
05:00 19.2 18.2 94   LegendMM LegendMM LegendMM 99.83     LegendNANA
06:00 18.9 18.1 95   LegendMM LegendMM LegendMM 99.80     LegendNANA
07:00 19.5 18.7 95   LegendMM LegendMM LegendMM 99.77     LegendNANA
08:00 21.3 19.9 92   LegendMM LegendMM LegendMM 99.72 29   LegendNANA
09:00 21.7 20.3 92   LegendMM LegendMM LegendMM 99.77 30   LegendNANA
10:00 22.6 20.9 90   LegendMM LegendMM LegendMM 99.68 31   LegendNANA
11:00 23.8 20.3 81   LegendMM LegendMM LegendMM 99.60 32   LegendNANA
12:00 24.8 20.5 77   LegendMM LegendMM LegendMM 99.42 33   LegendNANA
13:00 24.8 20.5 77   LegendMM LegendMM LegendMM 99.44 33   LegendNANA
14:00 27.0 21.2 71   LegendMM LegendMM LegendMM 99.42 36   LegendNANA
15:00 27.3 19.8 64   LegendMM LegendMM LegendMM 99.37 35   LegendNANA
16:00 26.2 20.6 71   LegendMM LegendMM LegendMM 99.30 34   LegendNANA
17:00 28.8 17.9 52   LegendMM LegendMM LegendMM 99.26 35   LegendNANA
18:00 28.3 18.0 54   LegendMM LegendMM LegendMM 99.24 34   LegendNANA
19:00 27.6 19.4 61   LegendMM LegendMM LegendMM 99.28 35   LegendNANA
20:00 25.9 19.6 68   LegendMM LegendMM LegendMM 99.31 33   LegendNANA
21:00 25.1 19.7 72   LegendMM LegendMM LegendMM 99.43 32   LegendNANA
22:00 24.1 18.3 70   LegendMM LegendMM LegendMM 99.47 30   LegendNANA
23:00 22.6 15.6 65   LegendMM LegendMM LegendMM 99.52 27   LegendNANA

Notes on Data Quality.

Legend

  • E = Estimated
  • M = Missing
  • NA = Not Available*
  • [empty] = Indicates an unobserved value
Date modified: